Holloman AFB, NM

3:34 AM MDT on March 27, 2017 (GMT -0600)
Holloman Air Force Base

Weather History for KHMN - August, 2013

Change the Weather History Date:

Monday, August 26, 2013

  Actual Average Record
Temperature  
Mean Temperature 79 °F -  
Max Temperature 92 °F 89 °F 104 °F (2002)
Min Temperature 68 °F 62 °F 54 °F (2010)
Cooling Degree Days 14    
Growing Degree Days 29 (Base 50)    
Moisture  
Dew Point 53 °F    
Average Humidity 40    
Maximum Humidity 57    
Minimum Humidity 25    
Precipitation  
Precipitation 0.04 in - - ()
Sea Level Pressure  
Sea Level Pressure 29.97 in    
Wind  
Wind Speed 4 mph (ENE)    
Max Wind Speed 13 mph    
Max Gust Speed 21 mph    
Visibility 11 miles    
Events Rain    
Averages and records for this station are not official NWS values.
T = Trace of Precipitation, MM = Missing Value Source: NWS Daily Summary

Daily Weather History Graph

Daily Weather History Graph

Search for Another Location

Airport or City:

Trip Planner

Search our weather history database for the weather conditions in past years. The results will help you decide how hot, cold, wet, or windy it might be!

Date:

Astronomy

Aug. 26, 2013 Rise Set
Actual Time 6:35 AM MDT 7:36 PM MDT
Civil Twilight 6:09 AM MDT 8:01 PM MDT
Nautical Twilight 5:39 AM MDT 8:31 PM MDT
Astronomical Twilight 5:08 AM MDT 9:02 PM MDT
Moon 11:11 PM MDT (8/26) 12:17 PM MDT (8/26)
Length of Visible Light 13h 51m
Length of Day
13h 01m
Waning Gibbous, 66% of the Moon is Illuminated
Aug 26
Waning Gibbous
Aug 28
Last Quarter
Sep 5
New
Sep 12
First Quarter
Sep 19
Full

Hourly Weather History & Observations

Time (MDT) Temp. Heat Index Dew Point Humidity Pressure Visibility Wind Dir Wind Speed Gust Speed Precip Events Conditions
12:56 AM 76.8 °F - 52.5 °F 43% 29.98 in 10.0 mi SSE 1.2 mph - N/A   Clear
1:56 AM 77.5 °F - 52.7 °F 42% 29.96 in 10.0 mi SE 3.5 mph - N/A   Clear
2:56 AM 73.6 °F - 52.5 °F 48% 29.96 in 10.0 mi North 3.5 mph - N/A   Clear
3:56 AM 71.1 °F - 51.8 °F 50% 29.97 in 10.0 mi North 4.6 mph - N/A   Clear
4:56 AM 70.0 °F - 52.2 °F 53% 29.98 in 12.0 mi NNE 3.5 mph - N/A   Clear
5:56 AM 70.7 °F - 52.7 °F 53% 29.99 in 10.0 mi East 2.3 mph - N/A   Clear
6:56 AM 68.5 °F - 52.9 °F 57% 30.01 in 10.0 mi NNE 4.6 mph - N/A   Clear
7:56 AM 69.4 °F - 53.2 °F 56% 30.03 in 10.0 mi North 2.3 mph - N/A   Partly Cloudy
8:56 AM 77.5 °F - 54.0 °F 44% 30.03 in 40.0 mi North 3.5 mph - N/A   Partly Cloudy
9:56 AM 83.5 °F - 52.9 °F 35% 30.02 in 40.0 mi SSW 3.5 mph - N/A   Partly Cloudy
10:56 AM 86.4 °F - 52.9 °F 32% 30.02 in 40.0 mi South 4.6 mph - N/A   Partly Cloudy
11:56 AM 86.0 °F 84.0 °F 53.1 °F 32% 30.00 in 40.0 mi SSE 5.8 mph - N/A   Scattered Clouds
12:56 PM 88.9 °F 86.7 °F 53.2 °F 30% 29.97 in 40.0 mi West 4.6 mph - N/A   Mostly Cloudy
1:56 PM 89.2 °F - 51.4 °F 27% 29.94 in 40.0 mi West 5.8 mph - N/A   Mostly Cloudy
2:56 PM 90.5 °F - 50.4 °F 25% 29.92 in 40.0 mi WSW 4.6 mph - N/A   Mostly Cloudy
3:56 PM 90.3 °F - 50.4 °F 25% 29.91 in 40.0 mi WSW 5.8 mph - N/A   Mostly Cloudy
4:41 PM 87.8 °F 85.7 °F 53.6 °F 31% 30.11 in 40.0 mi ESE 12.7 mph 20.7 mph N/A Rain Light Rain Showers
4:56 PM 82.4 °F 82.5 °F 59.0 °F 45% 29.92 in 40.0 mi SSE 3.5 mph 17.3 mph N/A Rain Light Rain Showers
5:11 PM 86.0 °F 84.2 °F 53.6 °F 33% 30.11 in 40.0 mi North 4.6 mph - N/A   Mostly Cloudy
5:56 PM 83.8 °F 82.6 °F 54.0 °F 36% 29.91 in 12.0 mi NE 6.9 mph - N/A   Mostly Cloudy
6:56 PM 80.6 °F 80.8 °F 57.7 °F 45% 29.91 in 12.0 mi ENE 6.9 mph - N/A   Scattered Clouds
7:56 PM 80.2 °F 80.4 °F 55.6 °F 43% 29.91 in 40.0 mi East 4.6 mph - N/A   Partly Cloudy
8:56 PM 77.2 °F - 56.5 °F 49% 29.91 in 40.0 mi Calm Calm - N/A   Partly Cloudy
9:56 PM 77.5 °F - 52.0 °F 41% 29.92 in 12.0 mi NE 2.3 mph - N/A   Partly Cloudy
10:56 PM 77.7 °F - 51.1 °F 39% 29.93 in 12.0 mi South 4.6 mph - N/A   Clear
11:56 PM 78.8 °F - 50.2 °F 37% 29.92 in 12.0 mi SE 5.8 mph - N/A   Clear